Overview Statistics Trail Chart Weather Telemetry Raw packets
 

This is the latest recevied weather packets stored in our database for station/object KW4UJ. If no packets are shown the sender has not sent any weather packets the latest 10 day(s).

<< 1 2 3 4 >>
Time Temp. Humidity Pressure Rain* Wind** Luminosity Snow
1788647220 26.11° C 70% 1011.1 hPa 0 mm - 39 W/m² -
1788646945 26.11° C 72% 1010.9 hPa 0 mm - 45 W/m² -
1788646615 26.11° C 72% 1011.2 hPa 0 mm - 46 W/m² -
1788646312 26.11° C 72% 1011 hPa 0 mm - 49 W/m² -
1788646007 26.11° C 73% 1010.9 hPa 0 mm - 58 W/m² -
1788645703 26.11° C 71% 1011 hPa 0 mm - 43 W/m² -
1788645403 26.11° C 71% 1010.8 hPa 0 mm - 38 W/m² -
1788645098 26.67° C 70% 1010.8 hPa 0 mm - 47 W/m² -
1788644794 26.11° C 71% 1010.7 hPa 0 mm - 180 W/m² -
1788644489 26.11° C 71% 1010.9 hPa 0 mm - 116 W/m² -
1788644184 26.11° C 71% 1010.8 hPa 0 mm - 61 W/m² -
1788643880 26.11° C 71% 1010.6 hPa 0 mm - 59 W/m² -
1788643575 26.11° C 71% 1010.6 hPa 0 mm - 81 W/m² -
1788643274 26.11° C 71% 1010.6 hPa 0 mm - 77 W/m² -
1788642970 26.67° C 72% 1010.5 hPa 0 mm - 58 W/m² -
1788642665 26.67° C 71% 1010.3 hPa 0 mm - 78 W/m² -
1788642361 26.67° C 71% 1010.4 hPa 0 mm - 98 W/m² -
1788642055 26.67° C 71% 1010.2 hPa 0 mm - 104 W/m² -
1788641755 26.67° C 71% 1010.3 hPa 0 mm - 95 W/m² -
1788641455 26.67° C 71% 1010.6 hPa 0 mm - 79 W/m² -
1788641155 26.67° C 69% 1010.5 hPa 0 mm - 88 W/m² -
1788640850 27.22° C 69% 1010.4 hPa 0 mm - 119 W/m² -
1788640550 27.22° C 69% 1010.3 hPa 0 mm - 143 W/m² -
1788640245 27.22° C 70% 1010.5 hPa 0 mm - 149 W/m² -
1788639941 27.22° C 71% 1010.5 hPa 0 mm - 229 W/m² -

* Rain latest hour (hover to see other rain measurements)
** Current wind speed in m/s (hover to see current wind gust speed)